www.pogodaiklimat.ru

Погода и климат >> Архив погоды >> Великобритания >> London


АРХИВ ПОГОДЫ в London

Время (UTC), дата Ветер
(напр.,м/с)
 
Видим.   Явления Облачность Т
(С)
Тd
(С)
f
(%)
Тe
(С)
Тes
(С)
Комфортность P
(гПа)
Po
(гПа)
Тmin
(С)
Tmax
(С)
R
(мм)
R24
(мм)
S
(см)
13 13.08 З 8 30 км н/о +21.6 +13.0 58 +24 +24 комфорт 1007.2 1004.3
14 13.08 З 6 40 км н/о +24.4 +13.5 51 +27 +27 жарко 1007.1 1004.2
15 13.08 СЗ 4 50 км н/о +22.9 +13.3 55 +26 +26 жарко 1007.2 1004.3
16 13.08 З 5 50 км н/о +24.0 +12.3 48 +26 +26 жарко 1007.5 1004.6
17 13.08 СЗ 5 45 км н/о +23.5 +12.2 49 +25 +25 комфорт 1007.8 1004.9
18 13.08 СЗ 5 50 км н/о +24.1 +12.6 49 +26 +26 жарко 1008.1 1005.2 +25.2
19 13.08 СЗ 4 50 км н/о +22.9 +13.1 54 +26 +26 жарко 1008.9 1006.0
20 13.08 СЗ 4 50 км н/о +21.6 +14.3 63 +25 +25 комфорт 1009.9 1007.0
21 13.08 СЗ 5 30 км н/о +20.2 +13.9 67 +22 +22 комфорт 1010.8 1007.9
22 13.08 СЗ 3 50 км н/о +18.8 +13.2 70 +20 +20 тепло 1011.5 1008.6
23 13.08 З 2 50 км н/о +18.0 +13.3 74 +19 +19 тепло 1012.0 1009.1
00 14.08 З 3 35 км н/о +17.6 +12.7 73 +18 +18 тепло 1012.6 1009.7
01 14.08 З 3 45 км н/о +16.5 +13.0 80 +16 +16 тепло 1013.3 1010.3
02 14.08 СЗ 2 45 км н/о +15.3 +12.8 85 +15 +15 по сезону 1013.6 1010.6
03 14.08 З 2 50 км н/о +15.4 +12.3 82 +15 +15 по сезону 1014.0 1011.1
04 14.08 З 3 30 км н/о +14.3 +12.8 91 +13 +13 по сезону 1014.3 1011.3
05 14.08 З 3 40 км н/о +13.6 +11.8 89 +13 +13 по сезону 1014.9 1011.9
06 14.08 З 3 35 км н/о +14.6 +12.7 88 +14 +14 по сезону 1015.7 1012.7 +13.1
07 14.08 З 4 30 км н/о +15.6 +12.7 83 +15 +15 прохладно 1015.9 1012.9
08 14.08 З 3 35 км н/о +17.3 +13.0 76 +17 +17 по сезону 1016.2 1013.3
09 14.08 З 4 40 км н/о +17.8 +13.2 74 +18 +18 по сезону 1016.4 1013.4
10 14.08 З 4 30 км н/о +20.9 +13.0 61 +24 +24 комфорт 1016.4 1013.5
11 14.08 З 4 27 км н/о +21.9 +11.5 52 +24 +24 комфорт 1016.6 1013.6
12 14.08 З 5 50 км н/о +23.3 +11.0 46 +26 +26 жарко 1016.7 1013.8
13 14.08 З 6 45 км н/о +24.5 +11.5 44 +26 +26 жарко 1016.6 1013.6
14 14.08 З 6 45 км н/о +25.9 +11.6 41 +27 +27 жарко 1016.4 1013.5
15 14.08 З 5 45 км н/о +24.9 +12.7 47 +27 +27 жарко 1016.4 1013.5
16 14.08 З 6 30 км н/о +25.6 +13.3 46 +28 +28 жарко 1016.3 1013.4
17 14.08 З 7 40 км н/о +24.6 +13.4 50 +27 +27 жарко 1016.4 1013.5
18 14.08 З 6 45 км н/о +23.2 +13.7 55 +27 +27 душно 1016.4 1013.5 +26.6
19 14.08 З 5 50 км н/о +22.6 +14.2 59 +26 +26 жарко 1016.8 1013.9
20 14.08 З 6 45 км н/о +20.6 +12.7 61 +23 +23 комфорт 1017.6 1014.7
21 14.08 З 5 35 км н/о +19.1 +13.0 68 +20 +20 тепло 1017.9 1014.9
22 14.08 З 4 26 км н/о +18.3 +12.5 69 +18 +18 тепло 1018.1 1015.1
23 14.08 З 4 25 км н/о +17.1 +12.6 75 +17 +17 тепло 1018.3 1015.3
00 15.08 З 4 23 км н/о +16.4 +12.4 77 +16 +16 по сезону 1018.4 1015.4
01 15.08 ЮЗ 3 21 км н/о +16.1 +12.8 81 +16 +16 тепло 1018.0 1015.0
02 15.08 ЮЗ 4 19 км н/о +15.8 +13.1 84 +15 +15 по сезону 1018.0 1015.0
03 15.08 ЮЗ 3 24 км н/о +16.8 +13.4 80 +17 +17 тепло 1017.9 1014.9
04 15.08 ЮЗ 4 22 км н/о +17.4 +13.8 79 +17 +17 тепло 1017.7 1014.7
05 15.08 З 5 22 км н/о +17.7 +13.6 77 +17 +17 тепло 1017.8 1014.8
06 15.08 З 5 23 км н/о +17.8 +13.2 74 +17 +17 тепло 1018.2 1015.2 +15.6
07 15.08 ЮЗ 4 27 км н/о +18.4 +13.4 73 +19 +19 тепло 1018.2 1015.2
08 15.08 ЮЗ 5 35 км н/о +19.5 +14.2 71 +21 +21 комфорт 1018.3 1015.3
09 15.08 ЮЗ 6 35 км н/о +20.7 +14.5 68 +23 +23 комфорт 1018.3 1015.3
10 15.08 ЮЗ 7 45 км н/о +22.6 +14.6 61 +26 +26 жарко 1018.1 1015.1
11 15.08 З 6 40 км н/о +21.9 +14.3 62 +25 +25 комфорт 1018.2 1015.3
12 15.08 ЮЗ 6 50 км н/о +22.5 +14.3 60 +26 +26 жарко 1017.9 1015.0
13 15.08 ЮЗ 7 45 км н/о +23.9 +14.9 57 +27 +27 жарко 1017.6 1014.7
14 15.08 ЮЗ 6 40 км н/о +24.7 +14.9 54 +27 +27 жарко 1017.0 1014.1
15 15.08 ЮЗ 6 45 км н/о +24.2 +14.8 56 +27 +27 жарко 1016.6 1013.7
16 15.08 ЮЗ 7 35 км н/о +23.3 +14.5 58 +27 +27 душно 1016.4 1013.5
17 15.08 ЮЗ 7 45 км н/о +22.5 +13.3 56 +25 +25 комфорт 1016.1 1013.2
18 15.08 ЮЗ 6 45 км н/о +21.6 +14.7 65 +25 +25 комфорт 1015.8 1012.9 +25.7
19 15.08 ЮЗ 7 45 км н/о +20.6 +14.5 68 +23 +23 комфорт 1015.8 1012.9
20 15.08 ЮЗ 7 35 км н/о +20.1 +14.6 71 +22 +22 комфорт 1016.0 1013.1
21 15.08 Ю 6 40 км н/о +19.5 +14.6 73 +21 +21 комфорт 1016.0 1013.1
22 15.08 ЮЗ 7 40 км н/о +18.3 +14.4 78 +18 +18 тепло 1015.7 1012.7
23 15.08 ЮЗ 6 35 км н/о +18.2 +14.7 80 +18 +18 тепло 1015.5 1012.5
00 16.08 ЮЗ 5 30 км н/о +18.5 +15.1 81 +19 +19 тепло 1015.1 1012.1
01 16.08 ЮЗ 7 40 км н/о +18.6 +15.4 82 +19 +19 тепло 1014.4 1011.5
02 16.08 ЮЗ 8 50 км н/о +18.8 +14.8 78 +19 +19 тепло 1014.0 1011.1
03 16.08 ЮЗ 5 50 км н/о +18.4 +14.9 80 +19 +19 тепло 1013.8 1010.9
04 16.08 ЮЗ 6 50 км н/о +18.5 +14.8 79 +19 +19 тепло 1013.2 1010.2
05 16.08 Ю 5 50 км н/о +18.5 +15.2 81 +19 +19 тепло 1012.8 1009.8
06 16.08 Ю 6 35 км н/о +18.5 +15.5 83 +19 +19 тепло 1012.8 1009.9 +18.1
07 16.08 ЮЗ 6 6000 м слаб. морось с дождем н/о +18.2 +16.0 87 +18 +18 по сезону 1012.7 1009.8
08 16.08 ЮЗ 6 3700 м морось н/о +17.8 +16.7 93 +17 +17 по сезону 1012.7 1009.7
09 16.08 ЮЗ 5 8000 м дождь н/о +17.7 +17.0 96 +17 +17 по сезону 1012.6 1009.6
10 16.08 З 3 10 км дождь н/о +17.0 +16.1 94 +17 +17 холодно 1012.9 1009.9
11 16.08 З 6 6000 м дождь н/о +15.9 +13.2 84 +15 +15 очень
холодно
1013.2 1010.2
12 16.08 З 5 10 км дождь н/о +14.7 +13.0 90 +13 +13 очень
холодно
1013.8 1010.8 10
13 16.08 ЮЗ 4 15 км в посл. час дождь н/о +15.1 +12.8 86 +14 +14 очень
холодно
1014.1 1011.1
14 16.08 ЮЗ 5 15 км н/о +16.7 +13.4 81 +16 +16 холодно 1014.1 1011.1
15 16.08 Ю 3 15 км н/о +17.8 +13.2 74 +18 +18 прохладно 1014.0 1011.0
16 16.08 Ю 5 16 км н/о +18.5 +13.9 75 +19 +19 прохладно 1013.8 1010.8
17 16.08 З 6 35 км н/о +20.4 +9.5 50 +22 +22 комфорт 1013.9 1010.9
18 16.08 З 6 50 км н/о +19.8 +8.0 46 +20 +20 по сезону 1014.1 1011.1 +21.4 10
19 16.08 З 5 45 км н/о +19.0 +9.4 54 +19 +19 тепло 1014.7 1011.7
20 16.08 ЮЗ 5 25 км н/о +17.4 +12.5 73 +17 +17 по сезону 1015.3 1012.3
21 16.08 З 3 30 км н/о +16.6 +9.8 64 +17 +17 по сезону 1015.8 1012.8
22 16.08 З 4 40 км н/о +16.1 +9.8 66 +15 +15 тепло 1016.3 1013.3
23 16.08 З 5 35 км н/о +15.2 +10.1 72 +14 +14 по сезону 1016.8 1013.8
00 17.08 З 4 30 км н/о +14.2 +10.3 77 +13 +13 по сезону 1017.0 1014.0
01 17.08 З 4 24 км н/о +13.7 +10.4 80 +12 +12 по сезону 1017.1 1014.1
02 17.08 З 2 22 км н/о +12.8 +10.6 86 +12 +12 по сезону 1017.5 1014.4
03 17.08 З 2 23 км н/о +11.7 +10.3 91 +11 +11 прохладно 1017.7 1014.7
04 17.08 ЮЗ 1 20 км н/о +11.2 +10.1 93 +11 +11 по сезону 1018.1 1015.0
05 17.08 Ю 2 21 км н/о +10.9 +10.1 95 +10 +10 прохладно 1018.5 1015.5
06 17.08 З 2 19 км н/о +12.5 +11.3 92 +12 +12 по сезону 1019.3 1016.2 +10.6
07 17.08 ЮЗ 3 17 км н/о +13.6 +11.6 88 +13 +13 прохладно 1019.7 1016.7
08 17.08 З 3 25 км н/о +15.9 +11.5 75 +15 +15 прохладно 1020.1 1017.1
09 17.08 З 3 30 км н/о +18.1 +11.3 64 +18 +18 по сезону 1020.3 1017.3
10 17.08 З 4 35 км н/о +18.3 +9.8 58 +19 +19 прохладно 1020.6 1017.6
11 17.08 З 5 45 км н/о +19.9 +9.7 52 +21 +21 комфорт 1020.5 1017.5
12 17.08 З 4 45 км н/о +21.6 +10.2 48 +23 +23 комфорт 1020.3 1017.4
13 17.08 З 6 40 км н/о +23.7 +9.3 40 +25 +25 комфорт 1020.2 1017.3
14 17.08 З 7 45 км н/о +21.4 +8.7 44 +23 +23 комфорт 1020.2 1017.2
15 17.08 ЮЗ 5 50 км н/о +22.2 +9.9 46 +24 +24 комфорт 1019.6 1016.7
16 17.08 З 7 30 км н/о +23.2 +9.8 43 +25 +25 комфорт 1019.2 1016.3
17 17.08 З 7 45 км н/о +21.7 +9.1 45 +23 +23 комфорт 1019.3 1016.4
18 17.08 З 6 40 км н/о +21.5 +9.8 47 +23 +23 комфорт 1019.5 1016.5 +23.7
19 17.08 З 6 40 км н/о +19.6 +10.0 54 +20 +20 тепло 1020.1 1017.1
20 17.08 З 5 30 км н/о +18.4 +10.5 60 +18 +18 по сезону 1020.6 1017.7
21 17.08 З 4 22 км н/о +17.3 +11.1 67 +17 +17 по сезону 1021.0 1018.0
22 17.08 ЮЗ 4 22 км н/о +17.4 +11.5 68 +17 +17 тепло 1021.0 1018.0
23 17.08 ЮЗ 4 22 км н/о +16.8 +11.6 71 +16 +16 тепло 1021.4 1018.4
00 18.08 ЮЗ 4 24 км н/о +16.5 +11.9 74 +16 +16 по сезону 1021.1 1018.1
01 18.08 ЮЗ 4 24 км н/о +15.7 +11.8 78 +15 +15 тепло 1020.6 1017.6
02 18.08 ЮЗ 5 24 км н/о +15.8 +12.1 79 +15 +15 тепло 1020.5 1017.5
03 18.08 ЮЗ 4 24 км н/о +15.8 +12.0 78 +15 +15 по сезону 1020.3 1017.3
04 18.08 ЮЗ 4 27 км н/о +15.6 +12.2 80 +15 +15 тепло 1019.9 1016.9
05 18.08 ЮЗ 3 26 км н/о +15.7 +12.6 82 +15 +15 тепло 1020.4 1017.3
06 18.08 ЮЗ 4 29 км н/о +16.4 +13.2 81 +16 +16 тепло 1020.5 1017.5 +15.3
07 18.08 ЮЗ 5 30 км н/о +17.0 +13.9 82 +16 +16 по сезону 1020.9 1017.9
08 18.08 ЮЗ 6 26 км н/о +18.0 +14.1 78 +18 +18 по сезону 1021.1 1018.1
09 18.08 ЮЗ 6 26 км н/о +18.9 +13.9 73 +20 +20 тепло 1021.4 1018.4
10 18.08 ЮЗ 6 30 км н/о +19.8 +13.0 65 +21 +21 комфорт 1021.2 1018.2
11 18.08 ЮЗ 6 30 км н/о +19.7 +12.9 65 +21 +21 комфорт 1021.1 1018.2
12 18.08 ЮЗ 6 29 км н/о +20.8 +13.4 63 +23 +23 комфорт 1021.2 1018.3
13 18.08 З 7 30 км н/о +20.0 +13.9 68 +22 +22 комфорт 1021.3 1018.3
14 18.08 З 6 45 км н/о +21.4 +14.0 63 +24 +24 комфорт 1021.0 1018.1
15 18.08 ЮЗ 6 35 км н/о +21.3 +13.3 60 +24 +24 комфорт 1020.7 1017.8
16 18.08 ЮЗ 6 45 км н/о +22.3 +13.8 59 +25 +25 комфорт 1020.3 1017.4
17 18.08 З 6 40 км н/о +22.1 +14.2 61 +25 +25 комфорт 1020.3 1017.3
18 18.08 З 6 45 км н/о +21.6 +14.3 63 +25 +25 комфорт 1020.4 1017.4 +22.5
19 18.08 З 5 45 км н/о +21.1 +14.5 66 +24 +24 комфорт 1020.6 1017.6
20 18.08 ЮЗ 5 35 км н/о +20.6 +14.9 70 +23 +23 комфорт 1021.0 1018.0
21 18.08 ЮЗ 5 24 км н/о +19.9 +14.9 73 +22 +22 комфорт 1020.9 1018.0
22 18.08 ЮЗ 5 28 км н/о +19.6 +15.1 75 +21 +21 комфорт 1021.0 1018.1
23 18.08 ЮЗ 5 18 км н/о +19.0 +15.1 78 +20 +20 тепло 1020.9 1017.9
00 19.08 ЮЗ 4 20 км н/о +18.4 +14.8 80 +19 +19 тепло 1020.8 1017.8
01 19.08 ЮЗ 4 21 км н/о +18.4 +14.7 79 +19 +19 тепло 1020.5 1017.6
02 19.08 Ю 4 21 км н/о +18.3 +15.2 82 +19 +19 тепло 1020.2 1017.2
03 19.08 ЮЗ 5 21 км н/о +18.4 +15.7 84 +19 +19 тепло 1019.7 1016.7
04 19.08 Ю 5 21 км н/о +17.6 +15.0 85 +17 +17 тепло 1019.1 1016.1
05 19.08 ЮЗ 6 22 км н/о +17.8 +14.7 82 +17 +17 тепло 1019.1 1016.1
06 19.08 ЮЗ 5 24 км н/о +17.8 +14.2 79 +17 +17 тепло 1019.0 1016.0 +17.5
07 19.08 ЮЗ 7 23 км н/о +18.4 +14.6 79 +18 +18 тепло 1018.6 1015.6
08 19.08 ЮЗ 7 22 км н/о +18.7 +14.9 79 +19 +19 тепло 1018.5 1015.5
09 19.08 ЮЗ 6 26 км н/о +19.0 +15.2 79 +20 +20 тепло 1018.5 1015.6
10 19.08 ЮЗ 7 35 км н/о +19.8 +15.6 77 +22 +22 комфорт 1018.4 1015.5
11 19.08 ЮЗ 8 40 км н/о +21.0 +15.7 72 +24 +24 комфорт 1018.1 1015.1
12 19.08 ЮЗ 6 27 км н/о +22.3 +16.0 68 +26 +26 жарко 1017.9 1014.9
13 19.08 ЮЗ 7 30 км н/о +24.0 +16.3 62 +27 +27 жарко 1017.4 1014.5
14 19.08 З 7 30 км н/о +26.7 +16.7 54 +30 +30 душно 1017.2 1014.3
15 19.08 З 9
{13}
35 км н/о +27.5 +16.4 51 +31 +31 душно 1016.8 1013.9
16 19.08 З 7
{13}
35 км н/о +26.9 +15.9 51 +30 +30 душно 1017.0 1014.1
17 19.08 З 6 45 км н/о +26.1 +15.6 52 +29 +29 жарко 1017.2 1014.3
18 19.08 З 6 35 км н/о +24.6 +15.2 56 +28 +28 душно 1017.5 1014.6 +28.3
19 19.08 З 5 35 км н/о +23.0 +15.6 63 +27 +27 душно 1018.0 1015.1
20 19.08 З 5 50 км н/о +21.6 +15.6 69 +25 +25 комфорт 1018.7 1015.7
21 19.08 З 5 50 км н/о +20.6 +15.8 74 +24 +24 комфорт 1019.2 1016.3
22 19.08 З 4 40 км н/о +20.2 +15.9 76 +23 +23 комфорт 1019.5 1016.5
23 19.08 З 4 23 км н/о +19.6 +16.0 80 +22 +22 комфорт 1019.6 1016.7
00 20.08 З 4 35 км н/о +19.5 +16.0 80 +21 +21 комфорт 1019.7 1016.8
01 20.08 З 3 35 км н/о +19.4 +16.0 81 +21 +21 комфорт 1019.8 1016.8
02 20.08 З 3 27 км н/о +19.2 +15.9 81 +21 +21 комфорт 1019.9 1016.9
03 20.08 З 2 30 км н/о +19.1 +15.6 80 +21 +21 комфорт 1019.9 1016.9
04 20.08 З 3 24 км н/о +18.6 +15.6 83 +20 +20 тепло 1019.6 1016.6
05 20.08 З 3 19 км н/о +18.5 +15.8 84 +19 +19 тепло 1019.8 1016.8
06 20.08 З 4 23 км н/о +18.4 +15.5 83 +19 +19 тепло 1020.3 1017.3 +18.4
07 20.08 З 4 19 км н/о +18.4 +15.5 83 +19 +19 тепло 1020.6 1017.6
08 20.08 З 4 22 км н/о +20.1 +15.2 73 +23 +23 комфорт 1020.8 1017.8
09 20.08 З 1 40 км н/о +22.0 +15.5 67 +26 +26 душно 1020.7 1017.8
10 20.08 З 3 45 км н/о +23.5 +15.4 60 +26 +26 жарко 1020.7 1017.8
11 20.08 ЮЗ 3 45 км н/о +23.7 +15.1 59 +27 +27 жарко 1020.6 1017.7

 

Местоположение метеостанции London (Великобритания): широта 51.48 долгота -0.45 высота над уровнем моря 25 м.

В архиве по умолчанию представлена погода в London за последнюю неделю. Архивные данные за месяц целиком и за предыдущие месяцы, начиная с января 2011 года, Вы можете получить, выбрав интересующий диапазон дат из раскрывающегося списка и нажав кнопку "Ввод!".


*Определитесь, кто Вы:
робот инопланетянин человек

Внимание! Время в таблицах - всемирное. Для получения местного времени необходимо прибавить поправку, которая в London равна 0 ч.

Смотрите также архив погоды в соседних городах и на ближайших метеорологических станциях:

Погода в Northolt (Великобритания) (8 км)
Погода в London, St James Park (Великобритания) (23 км)
Погода в Charlwood (Великобритания) (28 км)
Погода в Farnborough (Великобритания) (31 км)
Погода в Kenley Airfield (Великобритания) (33 км)
Погода в High Wycombe Hqstc (Великобритания) (33 км)
Погода в Odiham (Великобритания) (44 км)
Погода в Benson (Великобритания) (46 км)
Погода в Gravesend-Broadness (Великобритания) (52 км)
Погода в Rothamsted (Великобритания) (66 км)

Пояснения к столбцам:

Ветер - указаны скорость ветра в м/с - средняя за 10 мин, порывы в срок и между сроками (в фигурных скобках) и направление, откуда дует ветер: С - северный, СВ - северо-восточный, В - восточный, ЮВ - юго-восточный, Ю - южный, ЮЗ - юго-западный, З - западный, СЗ - северо-западный.
Видимость - горизонтальная дальность видимости в метрах или километрах. При видимости от 1 до 10 км при отсутствии осадков обычно наблюдается дымка, при ухудшении видимости до 1 км и менее - туман. В сухую погоду видимость может ухудшаться дымом, пылью или мглою.
Явления - указаны атмосферные явления, наблюдавшиеся в срок или в последний час перед сроком; фигурными скобками обозначены явления, наблюдавшиеся между сроками (за 1-3 часа до срока); квадратными скобками обозначены град или гололедные отложения с указанием их диаметра в мм.
Облачность - указаны через наклонную черту общая и нижняя облачность в баллах и высота нижней границы облаков в метрах; квадратными скобками обозначены формы облаков: Ci - перистые, Cs - перисто-слоистые, Cc - перисто-кучевые, Ac - высококучевые, As - высокослоистые, Sc - слоисто-кучевые, Ns - слоисто-дождевые, Cu - кучевые, Cb - кучево-дождевые. Подробнее классификацию облаков см. в Атласе облаков (PDF).
T - Температура воздуха - температура, измеренная на высоте 2 м над землей.
Td - Температура точки росы - температура, при понижении до которой содержащийся в воздухе водяной пар достигнет насыщения.
f - Относительная влажность воздуха - влажноcть воздуха, измеренная на высоте 2 м над землей.
Te - Эффективная температура - температура, которую ощущает одетый по сезону человек в тени. Характеристика душности погоды. При расчете учитывается влияние влажности воздуха и скорости ветра на теплоощущения человека.
Tes - Эффективная температура на солнце - температура, которую ощущает человек, с поправкой на солнечный нагрев. Характеристика знойности погоды. Зависит от высоты солнца над горизонтом, облачности и скорости ветра. Ночью, в пасмурную погоду, а также при ветре 12 м/с и более поправка равна нулю.
P - Атмосферное давление - приведенное к уровню моря атмосферное давление.
Po - Атмосферное давление - измеренное на уровне метеостанции атмосферное давление.
Tmin - Минимальная температура - минимум температуры воздуха на высоте 2 м над землей.
Tmax - Максимальная температура - максимум температуры воздуха на высоте 2 м над землей.
R - Количество осадков - Количество выпавших осадков за период времени, мм. При наведении курсора мыши на число - период времени, за который выпало указанное количество осадков.
R24 - Количество осадков - Количество выпавших осадков за 24 часа, мм.
S - Снежный покров - Высота снежного покрова, см. При наведении курсора мыши на число - состояние снежного покрова и степень покрытия местности в баллах.